K3CHZ Weather Reports


time (UTC)temp
C
wind
direction
speed
KPH
gust
KPH
rain 1hr
cm
rain 24hr
cm
rain mn
cm
humidity
%
barometer
mb
20260509223716 20 121 0.0 0.0 0.00 0.00 0.00 62 1008.6
20260509222716 20 137 0.0 0.0 0.00 0.00 0.00 62 1008.7
20260509221716 20 137 0.0 0.0 0.00 0.00 0.00 62 1008.6
20260509221216 20 137 0.0 0.0 0.00 0.00 0.00 61 1008.7
20260509220215 20 137 0.0 0.0 0.00 0.00 0.00 62 1008.7
20260509215715 20 137 0.0 0.0 0.00 0.00 0.00 66 1008.6
20260509215217 20 137 0.0 0.0 0.00 0.00 0.00 66 1008.7
20260509214715 20 137 0.0 0.0 0.00 0.00 0.00 64 1008.8
20260509214215 20 137 0.0 0.0 0.00 0.00 0.00 63 1008.7
20260509213716 20 137 0.0 0.0 0.00 0.00 0.00 63 1008.8
20260509213217 20 137 0.0 0.0 0.00 0.00 0.00 61 1008.8
20260509212219 20 157 0.0 0.0 0.00 0.00 0.00 62 1008.7
20260509211720 20 157 0.0 0.0 0.00 0.00 0.00 60 1008.7
20260509211219 20 98 0.0 0.0 0.00 0.00 0.00 63 1008.7
20260509210720 20 98 0.0 0.0 0.00 0.00 0.00 60 1008.8
20260509210218 20 98 0.0 0.0 0.00 0.00 0.00 61 1008.9
20260509205719 20 98 0.0 0.0 0.00 0.00 0.00 61 1008.7
20260509205219 20 98 0.0 0.0 0.00 0.00 0.00 61 1008.7
20260509204719 20 98 0.0 0.0 0.00 0.00 0.00 62 1008.7
20260509204219 20 96 0.0 0.0 0.00 0.00 0.00 63 1008.8
20260509203719 20 97 0.0 0.0 0.00 0.00 0.00 63 1008.7
20260509203219 20 97 0.0 0.0 0.00 0.00 0.00 62 1008.7
20260509202720 20 97 0.0 3.2 0.00 0.00 0.00 62 1008.7
20260509202503 20 97 0.0 3.2 0.00 0.00 0.00 61 1008.8
20260509201004 20 73 0.0 0.0 0.00 0.00 0.00 59 1008.7
20260509200216 20 84 0.0 0.0 0.00 0.00 0.00 60 1008.8
20260509195716 20 103 0.0 1.6 0.00 0.00 0.00 60 1008.9
20260509195218 20 113 0.0 1.6 0.00 0.00 0.00 61 1009.0
20260509194717 20 190 0.0 1.6 0.00 0.00 0.00 60 1009.0
20260509194216 20 205 0.0 1.6 0.00 0.00 0.00 61 1009.1
20260509193717 20 205 0.0 1.6 0.00 0.00 0.00 61 1009.3
20260509193217 20 172 0.0 0.0 0.00 0.00 0.00 62 1009.5
20260509192717 19 171 0.0 0.0 0.00 0.00 0.00 62 1009.5
20260509192221 19 171 0.0 3.2 0.00 0.00 0.00 61 1009.5
20260509191720 19 171 0.0 3.2 0.00 0.00 0.00 61 1009.5
20260509190719 19 199 0.0 0.0 0.00 0.00 0.00 63 1009.5
20260509190221 19 199 0.0 0.0 0.00 0.00 0.00 62 1009.6
20260509185720 19 199 0.0 0.0 0.00 0.00 0.00 65 1009.8
20260509184720 20 199 0.0 1.6 0.00 0.00 0.00 59 1009.8
20260509184221 20 148 0.0 1.6 0.00 0.00 0.00 61 1009.8
20260509183719 19 219 0.0 1.6 0.00 0.00 0.00 62 1009.9
20260509183223 19 276 0.0 0.0 0.00 0.00 0.00 64 1009.9
20260509182717 19 276 0.0 0.0 0.00 0.00 0.00 61 1009.9
20260509182216 18 276 0.0 0.0 0.00 0.00 0.00 66 1010.1
20260509181717 18 276 0.0 1.6 0.00 0.00 0.00 61 1010.3
20260509181217 18 276 0.0 1.6 0.00 0.00 0.00 64 1010.5
20260509180717 18 276 0.0 0.0 0.00 0.00 0.00 62 1010.6
20260509180217 18 296 0.0 4.8 0.00 0.00 0.00 61 1010.6
20260509175719 18 295 0.0 4.8 0.00 0.00 0.00 63 1010.7
20260509175216 18 105 0.0 0.0 0.00 0.00 0.00 63 1010.7
20260509174717 18 105 0.0 0.0 0.00 0.00 0.00 62 1010.8
20260509174217 18 105 0.0 0.0 0.00 0.00 0.00 60 1010.8
20260509173717 18 106 0.0 0.0 0.00 0.00 0.00 63 1010.8
20260509173217 18 118 0.0 0.0 0.00 0.00 0.00 63 1010.9
20260509172716 17 119 0.0 0.0 0.00 0.00 0.00 64 1011.0
20260509172215 17 119 0.0 0.0 0.00 0.00 0.00 65 1011.0
20260509171714 17 121 0.0 0.0 0.00 0.00 0.00 65 1011.0
20260509171213 17 121 0.0 0.0 0.00 0.00 0.00 64 1011.0
20260509170715 17 121 0.0 0.0 0.00 0.00 0.00 65 1011.1
20260509170215 17 121 0.0 0.0 0.00 0.00 0.00 64 1011.1
20260509165716 17 118 0.0 0.0 0.00 0.00 0.00 62 1011.1
20260509165214 17 118 0.0 0.0 0.00 0.00 0.00 63 1011.1
20260509164713 17 118 0.0 0.0 0.00 0.00 0.00 62 1011.0
20260509164215 17 118 0.0 0.0 0.00 0.00 0.00 63 1011.0
20260509163714 17 118 0.0 0.0 0.00 0.00 0.00 59 1011.0
20260509163214 17 219 0.0 0.0 0.00 0.00 0.00 64 1011.2
20260509162714 17 219 0.0 0.0 0.00 0.00 0.00 63 1011.1
20260509162214 17 219 0.0 0.0 0.00 0.00 0.00 63 1011.2
20260509161215 17 174 0.0 0.0 0.00 0.00 0.00 62 1011.2
20260509160714 17 173 0.0 4.8 0.00 0.00 0.00 62 1011.2
20260509160214 17 174 0.0 4.8 0.00 0.00 0.00 62 1011.2
20260509155714 17 173 0.0 4.8 0.00 0.00 0.00 63 1011.2
20260509155214 17 174 0.0 0.0 0.00 0.00 0.00 64 1011.2
20260509154713 17 174 0.0 0.0 0.00 0.00 0.00 63 1011.3
20260509154214 17 174 0.0 0.0 0.00 0.00 0.00 62 1011.3
20260509153715 17 174 0.0 0.0 0.00 0.00 0.00 61 1011.3
20260509153215 17 174 0.0 8.0 0.00 0.00 0.00 62 1011.3
20260509152714 17 174 0.0 8.0 0.00 0.00 0.00 62 1011.3
20260509152217 16 158 0.0 0.0 0.00 0.00 0.00 63 1011.3
20260509151717 16 153 0.0 0.0 0.00 0.00 0.00 66 1011.3
20260509151217 16 153 0.0 0.0 0.00 0.00 0.00 63 1011.4
20260509150717 16 157 0.0 0.0 0.00 0.00 0.00 63 1011.4
20260509150216 16 157 0.0 0.0 0.00 0.00 0.00 65 1011.6
20260509145718 16 157 0.0 0.0 0.00 0.00 0.00 64 1011.5
20260509145217 16 157 0.0 0.0 0.00 0.00 0.00 65 1011.6
20260509144717 16 157 0.0 0.0 0.00 0.00 0.00 64 1011.7
20260509144217 16 155 0.0 0.0 0.00 0.00 0.00 65 1011.8
20260509143218 15 155 0.0 0.0 0.00 0.00 0.00 62 1011.8
20260509142717 15 155 0.0 1.6 0.00 0.00 0.00 61 1011.8
20260509142218 15 154 0.0 1.6 0.00 0.00 0.00 62 1011.8
20260509141717 15 143 0.0 0.0 0.00 0.00 0.00 62 1011.6
20260509141217 15 143 0.0 0.0 0.00 0.00 0.00 63 1011.6
20260509140221 15 144 0.0 0.0 0.00 0.00 0.00 62 1011.6
20260509135719 15 142 0.0 3.2 0.00 0.00 0.00 61 1011.7
20260509135217 15 267 0.0 3.2 0.00 0.00 0.00 62 1011.8
20260509134717 15 269 0.0 1.6 0.00 0.00 0.00 62 1011.7
20260509134217 15 269 0.0 1.6 0.00 0.00 0.00 60 1011.6
20260509133717 15 207 0.0 0.0 0.00 0.00 0.00 64 1011.6
20260509133218 15 192 0.0 1.6 0.00 0.00 0.00 63 1011.6
20260509131717 15 195 0.0 0.0 0.00 0.00 0.00 62 1011.7
20260509131217 15 195 0.0 0.0 0.00 0.00 0.00 62 1011.7
20260509130717 15 195 0.0 1.6 0.00 0.00 0.00 61 1011.6
20260509125717 15 195 0.0 0.0 0.00 0.00 0.00 62 1011.6
20260509125216 15 68 0.0 0.0 0.00 0.00 0.00 61 1011.5
20260509124718 15 139 0.0 0.0 0.00 0.00 0.00 64 1011.6
20260509124218 15 138 0.0 0.0 0.00 0.00 0.00 61 1011.7
20260509123217 14 131 0.0 0.0 0.00 0.00 0.00 62 1011.7
20260509122714 14 92 0.0 0.0 0.00 0.00 0.00 63 1011.7
20260509122214 14 89 0.0 0.0 0.00 0.00 0.00 64 1011.8
20260509121714 14 110 0.0 0.0 0.00 0.00 0.00 62 1011.7
20260509121214 14 224 0.0 0.0 0.00 0.00 0.00 64 1011.6
20260509120215 14 197 0.0 0.0 0.00 0.00 0.00 63 1011.5
20260509115714 14 197 0.0 0.0 0.00 0.00 0.00 62 1011.4
20260509115214 14 197 0.0 0.0 0.00 0.00 0.00 62 1011.5
20260509114214 13 202 0.0 0.0 0.00 0.00 0.00 64 1011.4
20260509113714 13 202 0.0 0.0 0.00 0.00 0.00 63 1011.3
20260509113214 13 202 0.0 0.0 0.00 0.00 0.00 63 1011.3
20260509112715 13 153 0.0 0.0 0.00 0.00 0.00 63 1011.2
20260509112217 13 153 0.0 0.0 0.00 0.00 0.00 63 1011.2
20260509111218 13 158 0.0 3.2 0.00 0.00 0.00 62 1011.1
20260509110717 13 158 0.0 3.2 0.00 0.00 0.00 61 1011.2
20260509110217 13 158 0.0 0.0 0.00 0.00 0.00 59 1011.0
20260509105717 13 158 0.0 0.0 0.00 0.00 0.00 59 1011.0
20260509105217 13 158 0.0 0.0 0.00 0.00 0.00 58 1010.9
20260509104717 13 158 0.0 0.0 0.00 0.00 0.00 58 1010.9
20260509104218 13 158 0.0 0.0 0.00 0.00 0.00 58 1010.8
20260509103717 13 35 0.0 0.0 0.00 0.00 0.00 58 1010.8
20260509102714 13 35 0.0 0.0 0.00 0.00 0.00 58 1010.8
20260509102215 13 293 0.0 0.0 0.00 0.00 0.00 58 1010.8
20260509101214 13 293 0.0 0.0 0.00 0.00 0.00 58 1010.8
20260509100715 13 293 0.0 0.0 0.00 0.00 0.00 58 1010.8
20260509100214 13 293 0.0 0.0 0.00 0.00 0.00 60 1010.8
20260509095714 13 293 0.0 0.0 0.00 0.00 0.00 59 1010.8
20260509095215 13 293 0.0 0.0 0.00 0.00 0.00 60 1010.9
20260509093714 13 293 0.0 0.0 0.00 0.00 0.00 61 1010.9
20260509093214 13 293 0.0 0.0 0.00 0.00 0.00 62 1010.9
20260509092714 13 293 0.0 0.0 0.00 0.00 0.00 61 1010.9
20260509092217 13 293 0.0 0.0 0.00 0.00 0.00 61 1011.0
20260509091718 13 293 0.0 0.0 0.00 0.00 0.00 60 1011.0
20260509091219 13 293 0.0 0.0 0.00 0.00 0.00 60 1011.0
20260509090218 13 293 0.0 0.0 0.00 0.00 0.00 61 1011.0
20260509085717 13 293 0.0 0.0 0.00 0.00 0.00 60 1011.0
20260509085217 13 293 0.0 0.0 0.00 0.00 0.00 60 1011.1
20260509084719 13 293 0.0 0.0 0.00 0.00 0.00 60 1011.2
20260509083721 13 293 0.0 0.0 0.00 0.00 0.00 60 1011.2
20260509083218 13 293 0.0 3.2 0.00 0.00 0.00 60 1011.4
20260509082718 13 293 0.0 4.8 0.00 0.00 0.00 60 1011.4
20260509081717 13 293 1.6 4.8 0.00 0.00 0.00 60 1011.6
20260509081217 13 293 1.6 4.8 0.00 0.00 0.00 60 1011.6
20260509080717 13 293 1.6 4.8 0.00 0.00 0.00 61 1011.6
20260509080218 13 293 1.6 4.8 0.00 0.00 0.00 60 1011.6
20260509075717 13 293 0.0 3.2 0.00 0.00 0.00 60 1011.6
20260509075218 13 293 0.0 3.2 0.00 0.00 0.00 61 1011.6
20260509074717 13 293 1.6 3.2 0.00 0.00 0.00 60 1011.7
20260509074217 13 293 0.0 3.2 0.00 0.00 0.00 60 1011.6
20260509073717 13 293 1.6 3.2 0.00 0.00 0.00 60 1011.6
20260509073218 13 256 1.6 3.2 0.00 0.00 0.00 61 1011.6
20260509072717 13 226 0.0 3.2 0.00 0.00 0.00 61 1011.6
20260509072219 13 226 0.0 3.2 0.00 0.00 0.00 61 1011.6
20260509071718 13 226 1.6 3.2 0.00 0.00 0.00 61 1011.5
20260509071217 13 226 0.0 0.0 0.00 0.00 0.00 61 1011.5
20260509070717 13 226 0.0 0.0 0.00 0.00 0.00 61 1011.5
20260509070217 13 226 0.0 3.2 0.00 0.00 0.00 62 1011.4
20260509065717 13 226 0.0 4.8 0.00 0.00 0.00 62 1011.4
20260509065217 13 226 1.6 4.8 0.00 0.00 0.00 62 1011.5
20260509064719 13 226 0.0 0.0 0.00 0.00 0.00 62 1011.6
20260509064218 13 226 0.0 0.0 0.00 0.00 0.00 61 1011.6
20260509063717 13 226 0.0 1.6 0.00 0.00 0.00 62 1011.9
20260509062717 13 226 1.6 3.2 0.00 0.00 0.00 62 1011.9
20260509062221 13 226 0.0 0.0 0.00 0.00 0.00 63 1011.9
20260509061722 12 226 0.0 0.0 0.00 0.00 0.00 63 1011.9
20260509061221 12 226 0.0 3.2 0.00 0.00 0.00 63 1011.9
20260509055721 12 226 0.0 3.2 0.00 0.00 0.00 62 1012.0
20260509055221 12 226 0.0 3.2 0.00 0.00 0.00 62 1012.0
20260509054720 12 226 0.0 0.0 0.00 0.00 0.00 62 1012.1
20260509054223 13 226 0.0 0.0 0.00 0.00 0.00 62 1012.0
20260509053720 13 226 0.0 3.2 0.00 0.00 0.00 61 1012.0
20260509053220 13 226 0.0 3.2 0.00 0.00 0.00 61 1012.0
20260509052718 13 226 1.6 3.2 0.00 0.00 0.00 61 1012.1
20260509051718 13 226 0.0 0.0 0.00 0.00 0.00 60 1012.1
20260509051218 13 226 0.0 0.0 0.00 0.00 0.00 60 1012.2
20260509050717 13 226 0.0 0.0 0.00 0.00 0.00 59 1012.2
20260509050218 13 226 0.0 0.0 0.00 0.00 0.00 59 1012.1
20260509045719 13 226 0.0 0.0 0.00 0.00 0.00 58 1012.1
20260509044719 13 226 0.0 1.6 0.00 0.00 0.00 58 1012.0
20260509044218 13 226 0.0 3.2 0.00 0.00 0.00 59 1012.1
20260509043218 13 226 1.6 3.2 0.00 0.00 0.00 58 1012.1
20260509042717 13 226 0.0 3.2 0.00 0.00 0.00 58 1012.1
20260509042219 13 226 1.6 3.2 0.00 0.00 0.00 58 1012.1
20260509041717 13 226 0.0 3.2 0.00 0.00 0.00 58 1012.1
20260509041217 13 226 0.0 3.2 0.00 0.00 0.00 59 1012.1
20260509040723 13 226 1.6 3.2 0.00 0.00 0.00 59 1012.2
20260509040217 13 226 1.6 3.2 0.00 0.00 0.00 60 1012.2
20260509035718 13 226 0.0 0.0 0.00 0.00 0.00 60 1012.3
20260509035217 13 226 0.0 0.0 0.00 0.00 0.00 62 1012.3
20260509034717 12 226 0.0 0.0 0.00 0.00 0.00 64 1012.3
20260509034217 13 226 0.0 0.0 0.00 0.00 0.00 65 1012.3
20260509033718 13 226 0.0 0.0 0.00 0.00 0.00 64 1012.3
20260509032717 13 226 0.0 0.0 0.00 0.00 0.00 67 1012.2
20260509032222 13 226 0.0 0.0 0.00 0.00 0.00 62 1012.3
20260509031720 13 226 0.0 0.0 0.00 0.00 0.00 62 1012.3
20260509031220 13 226 0.0 0.0 0.00 0.00 0.00 63 1012.3
20260509030722 13 226 0.0 0.0 0.00 0.00 0.00 63 1012.4
20260509030220 13 226 0.0 0.0 0.00 0.00 0.00 65 1012.4
20260509025721 13 226 0.0 0.0 0.00 0.00 0.00 65 1012.5
20260509025220 13 226 0.0 0.0 0.00 0.00 0.00 65 1012.5
20260509024721 13 226 0.0 0.0 0.00 0.00 0.00 65 1012.5
20260509024221 13 226 0.0 0.0 0.00 0.00 0.00 66 1012.5
20260509023722 13 226 0.0 0.0 0.00 0.00 0.00 64 1012.5
20260509023220 13 226 0.0 0.0 0.00 0.00 0.00 65 1012.5
20260509022717 13 226 0.0 0.0 0.00 0.00 0.00 67 1012.5
20260509021719 14 226 0.0 0.0 0.00 0.00 0.00 67 1012.6
20260509021217 14 226 0.0 0.0 0.00 0.00 0.00 62 1012.6
20260509020717 15 226 0.0 0.0 0.00 0.00 0.00 64 1012.5
20260509020217 15 226 0.0 0.0 0.00 0.00 0.00 64 1012.5
20260509015717 15 226 0.0 0.0 0.00 0.00 0.00 62 1012.5
20260509015220 15 226 0.0 0.0 0.00 0.00 0.00 60 1012.5
20260509014717 15 226 0.0 0.0 0.00 0.00 0.00 59 1012.4
20260509013718 15 226 0.0 0.0 0.00 0.00 0.00 59 1012.4
20260509013219 15 226 0.0 0.0 0.00 0.00 0.00 59 1012.3
20260509012717 15 226 0.0 0.0 0.00 0.00 0.00 61 1012.5
20260509012220 15 226 0.0 0.0 0.00 0.00 0.00 64 1012.4
20260509011717 15 226 0.0 0.0 0.00 0.00 0.00 62 1012.4
20260509011217 16 226 0.0 0.0 0.00 0.00 0.00 67 1012.4
20260509010719 16 226 0.0 0.0 0.00 0.00 0.00 65 1012.2
20260509010217 16 226 0.0 0.0 0.00 0.00 0.00 62 1012.2
20260509005718 16 226 0.0 0.0 0.00 0.00 0.00 51 1012.2
20260509005218 16 226 0.0 0.0 0.00 0.00 0.00 61 1012.2
20260509004718 16 226 0.0 0.0 0.00 0.00 0.00 61 1012.2
20260509004217 16 226 0.0 0.0 0.00 0.00 0.00 58 1012.1
20260509003718 16 226 0.0 0.0 0.00 0.00 0.00 53 1012.1
20260509003217 16 226 0.0 0.0 0.00 0.00 0.00 60 1012.1
20260509002719 16 226 0.0 0.0 0.00 0.00 0.00 53 1012.1
20260509001720 16 226 0.0 0.0 0.00 0.00 0.00 56 1012.0
20260509001220 16 226 0.0 0.0 0.00 0.00 0.00 56 1011.9
20260509000721 16 226 0.0 0.0 0.00 0.00 0.00 57 1011.9
20260509000220 16 226 0.0 0.0 0.00 0.00 0.00 63 1011.8
20260508235221 17 226 0.0 0.0 0.00 0.00 0.00 59 1011.6
20260508234720 17 226 0.0 0.0 0.00 0.00 0.00 49 1011.5
20260508234220 17 226 0.0 0.0 0.00 0.00 0.00 48 1011.5
20260508233722 17 226 0.0 0.0 0.00 0.00 0.00 60 1011.5
20260508233220 17 226 0.0 0.0 0.00 0.00 0.00 59 1011.5
20260508232718 17 226 0.0 0.0 0.00 0.00 0.00 53 1011.5
20260508232218 18 61 0.0 0.0 0.00 0.00 0.00 44 1011.5
20260508231718 18 61 0.0 0.0 0.00 0.00 0.00 47 1011.5
20260508230719 18 61 0.0 1.6 0.00 0.00 0.00 42 1011.4
20260508230218 18 61 0.0 1.6 0.00 0.00 0.00 49 1011.4
20260508225717 18 157 0.0 0.0 0.00 0.00 0.00 40 1011.4
20260508224717 18 157 0.0 0.0 0.00 0.00 0.00 39 1011.3
20260508224217 18 157 0.0 0.0 0.00 0.00 0.00 38 1011.3